Aérodrome :
LOGIN :

S'inscrire | Disclaimer

   EN    FR    IT 

 










Légende :    VFR   VFR Marginal   IFR   IFR Intensif   IFR Très Intensif
Visi : 
Plafond : 
>= 8 km
>= 3000ft
5 à 8 km
1000 à 3000 ft
1500m à 5 km
500 à 1000 ft
800 à 1500m
200 à 500 ft
< 800m
< 200 ft
Symboles :   Orages  Brouillard  Fortes neiges  Fortes précipitations  Vent > 20 kt
SIGMETs :   Divers  Orages  Givrage  Turbulence  Onde Orograph.  Cendres Volcan.







- Altitude de l'aérodrome : 2026 ft
- Code IATA : TOJ


LETO - Madrid Torrejon

DERNIER METAR :
  • 270100Z 36002KT CAVOK 18/07 Q1011 NOSIG

METARs EXPIRÉS :
  • 270000Z 02003KT CAVOK 18/07 Q1011 NOSIG
  • 262300Z 00000KT CAVOK 20/06 Q1012 NOSIG

TAF TAF LETO
Valide du 27 à 00h jusqu'au 28 à 00h UTC


262300Z 2700/2724 VRB04KT CAVOK TX28/2715Z TN17/2705Z
BECMG 2705/2707 23012KT
PROB40
TEMPO 2712/2718 23020G30KT SHRA SCT030TCU
Pas de NOTAMs connus pour ce terrain.



MET'MAP, la Météo Aéronautique d'un coup d'oeil ! - Copyright ORBIFLY Décembre 2007 - Disclaimer

ORBIFLY MET'MAP TEAM :

Programmation & Développement : Alexandra Zaïnal
Conception & Développement : Baudouin d'Aumeries
Co-Programmation & Développement : Marc-Olivier Méhu
Soutien technique & logistique : Manuel Goepfert

Contact : metmap@orbifly.com




SOURCES & CREDITS :

   NOAA